FW9116 Weather Reports


Display with metric or nautical units.
time (UTC)temp
F
wind
direction
speed
MPH
gust
MPH
rain 1hr
in
rain 24hr
in
rain mn
in
humidity
%
barometer
mb
20260902090059 59 179 1.0 5.0 0.00 0.00 0.00 82 1010.5
20260902085556 59 195 1.0 6.0 0.00 0.00 0.00 81 1010.7
20260902085055 59 0 1.0 6.0 0.00 0.00 0.00 81 1010.7
20260902084609 60 147 1.0 5.0 0.00 0.00 0.00 81 1010.8
20260902084055 60 0 0.0 6.0 0.00 0.00 0.00 81 1010.7
20260902083554 60 182 1.0 7.0 0.00 0.00 0.00 81 1010.8
20260902083108 60 137 0.0 7.0 0.00 0.00 0.00 81 1010.8
20260902082555 60 210 1.0 7.0 0.00 0.00 0.00 81 1010.7
20260902082055 60 0 1.0 5.0 0.00 0.00 0.00 81 1010.7
20260902081605 60 196 2.0 5.0 0.00 0.00 0.00 81 1010.7
20260902081056 60 143 2.0 7.0 0.00 0.00 0.00 81 1010.7
20260902080556 60 135 2.0 7.0 0.00 0.00 0.00 81 1010.7
20260902075555 61 0 0.0 4.0 0.00 0.00 0.00 80 1010.6
20260902075059 61 144 0.0 2.0 0.00 0.00 0.00 79 1010.7
20260902074611 61 146 0.0 2.0 0.00 0.00 0.00 79 1010.7
20260902074055 61 123 0.0 2.0 0.00 0.00 0.00 79 1010.8
20260902073555 61 0 0.0 5.0 0.00 0.00 0.00 79 1010.7
20260902073100 61 0 0.0 6.0 0.00 0.00 0.00 79 1010.7
20260902072557 61 194 1.0 7.0 0.00 0.00 0.00 79 1010.9
20260902072055 61 222 0.0 7.0 0.00 0.00 0.00 78 1010.9
20260902071600 62 194 2.0 7.0 0.00 0.00 0.00 78 1010.9
20260902071055 62 137 1.0 7.0 0.00 0.00 0.00 78 1011.0
20260902070554 62 217 1.0 10.0 0.00 0.00 0.00 77 1011.1
20260902070104 62 190 2.0 11.0 0.00 0.00 0.00 77 1011.1
20260902065555 62 175 4.0 11.0 0.00 0.00 0.00 77 1011.1
20260902065055 62 184 2.0 5.0 0.00 0.00 0.00 77 1011.1
20260902064559 62 128 0.0 7.0 0.00 0.00 0.00 77 1011.1
20260902064055 62 201 2.0 9.0 0.00 0.00 0.00 77 1011.3
20260902063555 62 173 1.0 9.0 0.00 0.00 0.00 76 1011.3
20260902063115 62 202 1.0 6.0 0.00 0.00 0.00 76 1011.3
20260902062554 62 196 2.0 7.0 0.00 0.00 0.00 76 1011.3
20260902062055 62 178 1.0 7.0 0.00 0.00 0.00 76 1011.2
20260902061559 62 195 2.0 8.0 0.00 0.00 0.00 75 1011.2
20260902061056 62 209 3.0 9.0 0.00 0.00 0.00 75 1011.2
20260902060556 62 188 2.0 9.0 0.00 0.00 0.00 75 1011.2
20260902060122 62 199 1.0 5.0 0.00 0.00 0.00 74 1011.3
20260902055555 62 0 1.0 5.0 0.00 0.00 0.00 74 1011.4
20260902055054 63 0 1.0 6.0 0.00 0.00 0.00 74 1011.5
20260902054609 63 163 1.0 6.0 0.00 0.00 0.00 74 1011.4
20260902054054 63 156 1.0 8.0 0.00 0.00 0.00 74 1011.5
20260902053554 63 0 1.0 8.0 0.00 0.00 0.00 74 1011.6
20260902053058 63 0 2.0 8.0 0.00 0.00 0.00 74 1011.5
20260902052555 63 211 0.0 6.0 0.00 0.00 0.00 74 1011.5
20260902052055 63 178 1.0 6.0 0.00 0.00 0.00 74 1011.5
20260902051608 63 136 0.0 6.0 0.00 0.00 0.00 74 1011.5
20260902051056 63 271 1.0 5.0 0.00 0.00 0.00 73 1011.5
20260902050556 63 193 1.0 6.0 0.00 0.00 0.00 74 1011.6
20260902045555 63 0 1.0 4.0 0.00 0.00 0.00 74 1011.6
20260902045055 63 0 1.0 5.0 0.00 0.00 0.00 74 1011.6
20260902044610 63 0 1.0 5.0 0.00 0.00 0.00 74 1011.5
20260902044056 63 0 0.0 7.0 0.00 0.00 0.00 74 1011.5
20260902043555 63 236 1.0 7.0 0.00 0.00 0.00 74 1011.5
20260902043114 63 202 1.0 7.0 0.00 0.00 0.00 74 1011.4
20260902042557 63 165 1.0 7.0 0.00 0.00 0.00 74 1011.5
20260902042055 63 229 1.0 5.0 0.00 0.00 0.00 73 1011.4
20260902041606 63 177 0.0 7.0 0.00 0.00 0.00 73 1011.4
20260902041055 63 240 2.0 9.0 0.00 0.00 0.00 73 1011.4
20260902040555 63 291 1.0 9.0 0.00 0.00 0.00 73 1011.5
20260902040108 63 199 2.0 5.0 0.00 0.00 0.00 73 1011.4
20260902035554 64 169 0.0 5.0 0.00 0.00 0.00 73 1011.3
20260902035059 64 0 0.0 5.0 0.00 0.00 0.00 73 1011.4
20260902034614 64 266 1.0 5.0 0.00 0.00 0.00 73 1011.3
20260902034054 64 0 1.0 7.0 0.00 0.00 0.00 72 1011.3
20260902033556 64 240 1.0 7.0 0.00 0.00 0.00 72 1011.3
20260902033104 64 187 1.0 7.0 0.00 0.00 0.00 72 1011.3
20260902032556 64 269 1.0 7.0 0.00 0.00 0.00 71 1011.2
20260902032055 64 278 2.0 7.0 0.00 0.00 0.00 71 1011.2
20260902031604 64 287 1.0 4.0 0.00 0.00 0.00 71 1011.2
20260902031100 64 198 0.0 7.0 0.00 0.00 0.00 71 1011.2
20260902030555 64 159 2.0 7.0 0.00 0.00 0.00 71 1011.3
20260902030105 64 270 1.0 7.0 0.00 0.00 0.00 71 1011.3
20260902025557 64 252 2.0 7.0 0.00 0.00 0.00 71 1011.3
20260902025100 65 360 0.0 4.0 0.00 0.00 0.00 70 1011.2
20260902024558 65 244 1.0 4.0 0.00 0.00 0.00 70 1011.3
20260902024056 65 236 1.0 5.0 0.00 0.00 0.00 70 1011.2
20260902023556 65 232 2.0 6.0 0.00 0.00 0.00 69 1011.2
20260902023103 65 242 2.0 6.0 0.00 0.00 0.00 69 1011.1
20260902022554 65 267 1.0 6.0 0.00 0.00 0.00 69 1011.1
20260902022053 65 301 2.0 7.0 0.00 0.00 0.00 69 1011.2
20260902021607 65 0 2.0 9.0 0.00 0.00 0.00 69 1011.1
20260902021058 66 273 3.0 9.0 0.00 0.00 0.00 68 1011.1
20260902020556 66 311 3.0 9.0 0.00 0.00 0.00 68 1011.1
20260902020059 66 265 2.0 7.0 0.00 0.00 0.00 68 1011.0
20260902015554 66 245 0.0 8.0 0.00 0.00 0.00 68 1011.0
20260902015058 66 251 1.0 8.0 0.00 0.00 0.00 68 1011.0
20260902014600 67 157 1.0 6.0 0.00 0.00 0.00 67 1010.9
20260902014057 67 225 2.0 7.0 0.00 0.00 0.00 67 1010.9
20260902013553 67 303 1.0 8.0 0.00 0.00 0.00 67 1011.0
20260902013059 67 159 2.0 8.0 0.00 0.00 0.00 67 1010.8
20260902012553 67 0 1.0 12.0 0.00 0.00 0.00 67 1010.8
20260902012053 67 188 2.0 12.0 0.00 0.00 0.00 66 1010.8
20260902011601 67 0 2.0 10.0 0.00 0.00 0.00 66 1010.8
20260902011053 67 264 3.0 10.0 0.00 0.00 0.00 65 1010.9
20260902010553 67 260 4.0 10.0 0.00 0.00 0.00 64 1010.8
20260902010101 67 250 4.0 10.0 0.00 0.00 0.00 64 1010.6
20260902005556 67 276 1.0 9.0 0.00 0.00 0.00 64 1010.6
20260902005055 67 223 3.0 9.0 0.00 0.00 0.00 64 1010.7
20260902004605 67 313 1.0 9.0 0.00 0.00 0.00 64 1010.6
20260902004055 68 281 4.0 9.0 0.00 0.00 0.00 63 1010.6
20260902003552 68 261 3.0 11.0 0.00 0.00 0.00 63 1010.7
20260902003134 68 259 1.0 11.0 0.00 0.00 0.00 63 1010.6
20260902002553 68 206 4.0 11.0 0.00 0.00 0.00 62 1010.6
20260902002053 69 230 3.0 11.0 0.00 0.00 0.00 62 1010.6
20260902001606 70 235 2.0 12.0 0.00 0.00 0.00 61 1010.6
20260902001055 70 305 5.0 12.0 0.00 0.00 0.00 60 1010.4
20260902000555 71 249 3.0 13.0 0.00 0.00 0.00 59 1010.4
20260902000104 71 196 2.0 13.0 0.00 0.00 0.00 60 1010.4
20260901235555 71 215 4.0 11.0 0.00 0.00 0.00 59 1010.6
20260901235054 71 201 5.0 11.0 0.00 0.00 0.00 60 1010.4
20260901234603 70 320 3.0 10.0 0.00 0.00 0.00 60 1010.6
20260901234055 70 297 4.0 10.0 0.00 0.00 0.00 61 1010.6
20260901233555 70 198 3.0 10.0 0.00 0.00 0.00 61 1010.5
20260901233102 70 315 4.0 10.0 0.00 0.00 0.00 61 1010.5
20260901232555 70 202 3.0 8.0 0.00 0.00 0.00 62 1010.6
20260901232055 70 252 1.0 9.0 0.00 0.00 0.00 62 1010.7
20260901231605 70 265 3.0 10.0 0.00 0.00 0.00 62 1010.6
20260901231055 70 167 2.0 10.0 0.00 0.00 0.00 63 1010.6
20260901230556 70 289 5.0 10.0 0.00 0.00 0.00 62 1010.6
20260901230100 70 246 2.0 8.0 0.00 0.00 0.00 62 1010.7
20260901225555 70 236 2.0 8.0 0.00 0.00 0.00 62 1010.7
20260901225055 70 0 2.0 10.0 0.00 0.00 0.00 63 1010.7
20260901224606 69 0 2.0 11.0 0.00 0.00 0.00 63 1010.8
20260901224058 69 174 4.0 11.0 0.00 0.00 0.00 61 1010.8
20260901223555 69 171 0.0 12.0 0.00 0.00 0.00 62 1010.8
20260901223103 69 284 4.0 13.0 0.00 0.00 0.00 61 1010.7
20260901222556 70 222 3.0 13.0 0.00 0.00 0.00 61 1010.8
20260901222055 70 234 3.0 12.0 0.00 0.00 0.00 61 1010.9
20260901221619 70 320 4.0 12.0 0.00 0.00 0.00 61 1010.8
20260901221056 70 259 2.0 10.0 0.00 0.00 0.00 62 1010.8
20260901220556 69 299 1.0 10.0 0.00 0.00 0.00 63 1010.7
20260901220100 69 286 4.0 10.0 0.00 0.00 0.00 63 1010.8
20260901215555 69 296 3.0 10.0 0.00 0.00 0.00 64 1010.9
20260901215055 69 240 4.0 10.0 0.00 0.00 0.00 63 1010.9
20260901214601 68 279 4.0 10.0 0.00 0.00 0.00 64 1010.8
20260901214055 68 278 3.0 10.0 0.00 0.00 0.00 64 1010.9
20260901213558 68 295 2.0 10.0 0.00 0.00 0.00 63 1010.9
20260901213104 69 256 2.0 8.0 0.00 0.00 0.00 63 1010.9
20260901212558 69 286 2.0 9.0 0.00 0.00 0.00 63 1011.0
20260901212055 69 179 2.0 9.0 0.00 0.00 0.00 62 1010.9
20260901211600 69 280 2.0 8.0 0.00 0.00 0.00 61 1010.9
20260901211055 70 144 2.0 10.0 0.00 0.00 0.00 61 1010.9
20260901210558 69 291 2.0 10.0 0.00 0.00 0.00 63 1011.0
20260901210131 69 186 3.0 10.0 0.00 0.00 0.00 62 1011.0
20260901205557 68 160 3.0 9.0 0.00 0.00 0.00 64 1011.0
20260901205057 68 177 5.0 9.0 0.00 0.00 0.00 64 1010.9
20260901204555 68 218 4.0 9.0 0.00 0.00 0.00 65 1011.0
20260901204056 68 309 2.0 9.0 0.00 0.00 0.00 65 1011.0
20260901203557 68 222 2.0 7.0 0.00 0.00 0.00 66 1011.0
20260901203058 68 223 1.0 9.0 0.00 0.00 0.00 67 1011.0
20260901202555 67 149 2.0 9.0 0.00 0.00 0.00 68 1011.0
20260901202101 67 269 2.0 8.0 0.00 0.00 0.00 69 1011.1
20260901201603 66 184 1.0 10.0 0.00 0.00 0.00 69 1011.1
20260901201057 66 220 3.0 10.0 0.00 0.00 0.00 69 1011.1
20260901200600 66 179 2.0 6.0 0.00 0.00 0.00 70 1011.1
20260901200059 65 236 1.0 9.0 0.00 0.00 0.00 72 1011.2
20260901195554 65 213 3.0 9.0 0.00 0.00 0.00 71 1011.2
20260901195053 65 165 2.0 9.0 0.00 0.00 0.00 72 1011.1
20260901194606 65 266 4.0 9.0 0.00 0.00 0.00 72 1011.1
20260901194053 66 232 2.0 8.0 0.00 0.00 0.00 72 1011.3
20260901193557 66 0 1.0 7.0 0.00 0.00 0.00 71 1011.3
20260901193108 66 254 1.0 5.0 0.00 0.00 0.00 71 1011.4
20260901192557 66 275 1.0 4.0 0.00 0.00 0.00 71 1011.4
20260901192057 66 167 0.0 3.0 0.00 0.00 0.00 72 1011.4
20260901191615 65 0 0.0 5.0 0.00 0.00 0.00 74 1011.5
20260901191053 65 325 2.0 5.0 0.00 0.00 0.00 73 1011.5
20260901190553 65 275 2.0 6.0 0.00 0.00 0.00 73 1011.6
20260901190134 65 246 1.0 9.0 0.00 0.00 0.00 73 1011.5
20260901185554 65 173 3.0 9.0 0.00 0.00 0.00 74 1011.6
20260901185053 65 179 1.0 10.0 0.00 0.00 0.00 75 1011.7
20260901184600 64 169 3.0 10.0 0.00 0.00 0.00 75 1011.7
20260901184058 64 193 2.0 6.0 0.00 0.00 0.00 75 1011.8
20260901183557 64 151 2.0 6.0 0.00 0.00 0.00 75 1011.7
20260901183106 64 159 3.0 7.0 0.00 0.00 0.00 75 1011.7
20260901182553 64 160 2.0 7.0 0.00 0.00 0.00 76 1011.8
20260901182057 64 198 2.0 7.0 0.00 0.00 0.00 77 1011.8
20260901181604 64 148 3.0 7.0 0.00 0.00 0.00 77 1011.9
20260901181056 63 153 1.0 6.0 0.00 0.00 0.00 78 1011.9
20260901180557 63 171 2.0 7.0 0.00 0.00 0.00 78 1011.8
20260901180100 63 184 3.0 7.0 0.00 0.00 0.00 78 1011.8
20260901175557 63 181 2.0 7.0 0.00 0.00 0.00 80 1012.0
20260901175053 62 252 2.0 9.0 0.00 0.00 0.00 81 1012.0
20260901174602 62 182 3.0 9.0 0.00 0.00 0.00 82 1012.0
20260901174054 62 186 1.0 5.0 0.00 0.00 0.00 83 1011.9
20260901173554 61 260 0.0 5.0 0.00 0.00 0.00 83 1012.0
20260901173105 61 0 2.0 8.0 0.00 0.00 0.00 84 1012.0
20260901172554 61 261 1.0 8.0 0.00 0.00 0.00 84 1011.9
20260901172101 61 299 3.0 8.0 0.00 0.00 0.00 85 1011.9
20260901171635 61 248 0.0 5.0 0.00 0.00 0.00 86 1011.9
20260901171053 60 0 1.0 6.0 0.00 0.00 0.00 87 1011.8
20260901170553 60 177 2.0 6.0 0.00 0.00 0.00 87 1011.7
20260901170107 60 155 2.0 6.0 0.00 0.00 0.00 89 1011.8
20260901165556 60 185 1.0 4.0 0.00 0.00 0.00 89 1011.8
20260901165059 59 254 0.0 4.0 0.00 0.00 0.00 89 1011.8
20260901164613 59 0 1.0 5.0 0.00 0.00 0.00 89 1011.8
20260901164055 59 229 1.0 6.0 0.00 0.00 0.00 89 1011.8
20260901163557 59 173 1.0 7.0 0.00 0.00 0.00 88 1011.9
20260901163117 59 240 2.0 7.0 0.00 0.00 0.00 88 1011.9
20260901162554 59 248 1.0 4.0 0.00 0.00 0.00 88 1011.9
20260901162053 59 181 1.0 4.0 0.00 0.00 0.00 88 1011.9
20260901161605 59 0 0.0 4.0 0.00 0.00 0.00 87 1011.9
20260901161053 59 233 1.0 4.0 0.00 0.00 0.00 87 1011.9
20260901160555 59 259 1.0 9.0 0.00 0.00 0.00 86 1011.8
20260901155557 60 246 2.0 7.0 0.00 0.00 0.00 85 1011.8
20260901155059 59 255 1.0 6.0 0.00 0.00 0.00 85 1011.7
20260901154558 59 296 0.0 5.0 0.00 0.00 0.00 85 1011.8
20260901154054 59 241 1.0 5.0 0.00 0.00 0.00 85 1011.8
20260901153554 59 309 1.0 7.0 0.00 0.00 0.00 85 1011.7
20260901153104 59 0 2.0 8.0 0.00 0.00 0.00 85 1011.8
20260901152553 59 265 2.0 8.0 0.00 0.00 0.00 84 1011.7
20260901152053 59 246 2.0 8.0 0.00 0.00 0.00 84 1011.7
20260901151602 59 215 1.0 6.0 0.00 0.00 0.00 84 1011.6
20260901151055 59 264 2.0 6.0 0.00 0.00 0.00 84 1011.5
20260901150553 59 232 2.0 7.0 0.00 0.00 0.00 83 1011.5
20260901145554 59 248 1.0 4.0 0.00 0.00 0.00 83 1011.5
20260901145057 59 247 1.0 6.0 0.00 0.00 0.00 83 1011.4
20260901144603 59 289 1.0 8.0 0.00 0.00 0.00 83 1011.4
20260901144058 59 170 2.0 8.0 0.00 0.00 0.00 83 1011.3
20260901143556 59 247 2.0 7.0 0.00 0.00 0.00 83 1011.3
20260901143102 59 243 1.0 10.0 0.00 0.00 0.00 83 1011.3
20260901142556 59 257 2.0 10.0 0.00 0.00 0.00 83 1011.3
20260901142058 59 193 0.0 7.0 0.00 0.00 0.00 83 1011.3
20260901141602 59 261 1.0 7.0 0.00 0.00 0.00 83 1011.2
20260901141056 59 192 1.0 9.0 0.00 0.00 0.00 83 1011.2
20260901140553 59 184 1.0 9.0 0.00 0.00 0.00 83 1011.2
20260901140105 59 190 2.0 9.0 0.00 0.00 0.00 83 1011.1
20260901135554 59 202 2.0 6.0 0.00 0.00 0.00 83 1011.1
20260901135054 59 176 0.0 5.0 0.00 0.00 0.00 83 1011.1
20260901134608 59 159 2.0 5.0 0.00 0.00 0.00 83 1011.1
20260901134100 59 187 1.0 8.0 0.00 0.00 0.00 83 1011.1
20260901133600 59 252 2.0 8.0 0.00 0.00 0.00 84 1010.9
20260901133106 59 196 1.0 7.0 0.00 0.00 0.00 84 1011.0
20260901132556 59 171 2.0 6.0 0.00 0.00 0.00 84 1011.0
20260901132056 59 232 1.0 7.0 0.00 0.00 0.00 84 1011.0
20260901131615 59 253 0.0 7.0 0.00 0.00 0.00 84 1010.9
20260901131054 58 215 1.0 8.0 0.00 0.00 0.00 84 1010.9
20260901130554 58 212 1.0 8.0 0.00 0.00 0.00 84 1010.9
20260901130101 58 109 1.0 6.0 0.00 0.00 0.00 84 1010.9
20260901125557 59 168 2.0 6.0 0.00 0.00 0.00 84 1010.9
20260901125056 59 184 2.0 7.0 0.00 0.00 0.00 84 1010.9
20260901124605 59 159 1.0 7.0 0.00 0.00 0.00 84 1010.9
20260901124054 59 202 3.0 8.0 0.00 0.00 0.00 84 1010.8
20260901123557 59 176 3.0 8.0 0.00 0.00 0.00 84 1010.8
20260901123106 59 135 1.0 7.0 0.00 0.00 0.00 84 1010.8
20260901122557 58 158 1.0 7.0 0.00 0.00 0.00 84 1010.9
20260901122056 58 200 2.0 6.0 0.00 0.00 0.00 84 1010.9
20260901121608 58 0 1.0 7.0 0.00 0.00 0.00 84 1010.8
20260901121055 58 0 2.0 7.0 0.00 0.00 0.00 84 1010.9
20260901120554 58 0 0.0 6.0 0.00 0.00 0.00 85 1010.9
20260901120121 58 179 2.0 7.0 0.00 0.00 0.00 85 1010.9
20260901115554 58 206 0.0 7.0 0.00 0.00 0.00 85 1010.9
20260901115054 58 178 2.0 7.0 0.00 0.00 0.00 85 1010.9
20260901114621 58 187 2.0 8.0 0.00 0.00 0.00 85 1010.9
20260901114059 58 0 1.0 8.0 0.00 0.00 0.00 85 1010.9
20260901113556 58 0 3.0 8.0 0.00 0.00 0.00 85 1011.0
20260901113104 58 175 1.0 8.0 0.00 0.00 0.00 85 1010.9
20260901112556 58 197 0.0 7.0 0.00 0.00 0.00 85 1010.9
20260901112054 58 252 2.0 8.0 0.00 0.00 0.00 85 1010.8
20260901111610 58 199 3.0 8.0 0.00 0.00 0.00 85 1010.8
20260901111054 58 191 1.0 8.0 0.00 0.00 0.00 85 1010.8
20260901110555 58 195 2.0 8.0 0.00 0.00 0.00 85 1010.7
20260901110105 58 189 1.0 8.0 0.00 0.00 0.00 85 1010.8
20260901105554 58 163 1.0 4.0 0.00 0.00 0.00 85 1010.8
20260901105058 58 175 1.0 4.0 0.00 0.00 0.00 85 1010.7
20260901104606 58 196 0.0 4.0 0.00 0.00 0.00 84 1010.7
20260901104057 58 219 0.0 4.0 0.00 0.00 0.00 84 1010.8
20260901103553 58 296 0.0 6.0 0.00 0.00 0.00 84 1010.7
20260901103102 58 59 0.0 7.0 0.00 0.00 0.00 84 1010.7
20260901102557 58 0 2.0 7.0 0.00 0.00 0.00 84 1010.6
20260901102057 58 163 1.0 7.0 0.00 0.00 0.00 84 1010.5
20260901101601 58 196 1.0 7.0 0.00 0.00 0.00 83 1010.6
20260901101056 58 187 1.0 7.0 0.00 0.00 0.00 83 1010.6
20260901100558 58 158 1.0 6.0 0.00 0.00 0.00 83 1010.6
20260901095554 59 170 1.0 6.0 0.00 0.00 0.00 82 1010.6
20260901095054 59 0 1.0 7.0 0.00 0.00 0.00 82 1010.5
20260901094603 59 170 1.0 7.0 0.00 0.00 0.00 82 1010.6
20260901094055 59 179 3.0 7.0 0.00 0.00 0.00 82 1010.5
20260901093557 59 167 1.0 7.0 0.00 0.00 0.00 82 1010.5
20260901093102 59 180 1.0 12.0 0.00 0.00 0.00 82 1010.5
20260901092557 59 161 0.0 12.0 0.00 0.00 0.00 81 1010.3
20260901092054 59 164 2.0 9.0 0.00 0.00 0.00 81 1010.3
20260901091608 59 0 1.0 9.0 0.00 0.00 0.00 81 1010.3
20260901091056 60 239 1.0 6.0 0.00 0.00 0.00 81 1010.1
20260901090601 60 0 1.0 6.0 0.00 0.00 0.00 81 1010.1